| time (UTC) | temp F | wind direction | speed MPH | gust MPH | rain 1hr in | rain 24hr in | rain mn in | humidity % | barometer mb |
| 20260906103036 | 70 | 0 | 0.0 | 0.0 | 0.00 | 0.00 | 0.00 | 86 | 1011.8 |
| 20260906102517 | 70 | 0 | 0.0 | 0.0 | 0.00 | 0.00 | 0.00 | 86 | 1011.8 |
| 20260906102018 | 70 | 0 | 0.0 | 0.0 | 0.00 | 0.00 | 0.00 | 86 | 1011.8 |
| 20260906101533 | 70 | 0 | 0.0 | 0.0 | 0.00 | 0.00 | 0.00 | 85 | 1011.8 |
| 20260906101017 | 70 | 0 | 0.0 | 0.0 | 0.00 | 0.00 | 0.00 | 84 | 1011.9 |
| 20260906100525 | 70 | 0 | 0.0 | 0.0 | 0.00 | 0.00 | 0.00 | 84 | 1011.8 |
| 20260906100036 | 70 | 0 | 0.0 | 0.0 | 0.00 | 0.00 | 0.00 | 83 | 1011.8 |
| 20260906095516 | 70 | 0 | 0.0 | 1.0 | 0.00 | 0.00 | 0.00 | 82 | 1011.9 |
| 20260906095016 | 70 | 0 | 0.0 | 1.0 | 0.00 | 0.00 | 0.00 | 82 | 1011.9 |
| 20260906094535 | 70 | 0 | 0.0 | 0.0 | 0.00 | 0.00 | 0.00 | 81 | 1011.9 |
| 20260906094016 | 69 | 0 | 0.0 | 0.0 | 0.00 | 0.00 | 0.00 | 77 | 1011.9 |
| 20260906093518 | 69 | 0 | 0.0 | 0.0 | 0.00 | 0.00 | 0.00 | 77 | 1011.9 |
| 20260906093046 | 69 | 0 | 0.0 | 0.0 | 0.00 | 0.00 | 0.00 | 77 | 1012.1 |
| 20260906092520 | 69 | 0 | 0.0 | 0.0 | 0.00 | 0.00 | 0.00 | 76 | 1012.2 |
| 20260906092017 | 69 | 0 | 0.0 | 0.0 | 0.00 | 0.00 | 0.00 | 77 | 1012.1 |
| 20260906091537 | 69 | 0 | 0.0 | 0.0 | 0.00 | 0.00 | 0.00 | 76 | 1012.1 |
| 20260906091017 | 69 | 0 | 0.0 | 0.0 | 0.00 | 0.00 | 0.00 | 77 | 1012.1 |
| 20260906090518 | 69 | 0 | 0.0 | 2.0 | 0.00 | 0.00 | 0.00 | 77 | 1012.0 |
| 20260906085519 | 69 | 242 | 0.0 | 2.0 | 0.00 | 0.00 | 0.00 | 79 | 1012.0 |
| 20260906085018 | 69 | 0 | 0.0 | 2.0 | 0.00 | 0.00 | 0.00 | 82 | 1012.0 |
| 20260906084543 | 70 | 0 | 0.0 | 2.0 | 0.00 | 0.00 | 0.00 | 85 | 1012.1 |
| 20260906084018 | 70 | 0 | 0.0 | 0.0 | 0.00 | 0.00 | 0.00 | 86 | 1012.2 |
| 20260906083516 | 70 | 0 | 0.0 | 1.0 | 0.00 | 0.00 | 0.00 | 86 | 1012.3 |
| 20260906083040 | 70 | 0 | 0.0 | 1.0 | 0.00 | 0.00 | 0.00 | 86 | 1012.4 |
| 20260906082518 | 70 | 0 | 0.0 | 1.0 | 0.00 | 0.00 | 0.00 | 86 | 1012.4 |
| 20260906082018 | 70 | 0 | 0.0 | 0.0 | 0.00 | 0.00 | 0.00 | 86 | 1012.4 |
| 20260906081536 | 70 | 0 | 0.0 | 1.0 | 0.00 | 0.00 | 0.00 | 86 | 1012.3 |
| 20260906081020 | 70 | 0 | 0.0 | 1.0 | 0.00 | 0.00 | 0.00 | 86 | 1012.3 |
| 20260906080522 | 70 | 0 | 0.0 | 2.0 | 0.00 | 0.00 | 0.00 | 86 | 1012.3 |
| 20260906080036 | 70 | 0 | 0.0 | 2.0 | 0.00 | 0.00 | 0.00 | 86 | 1012.3 |
| 20260906075517 | 70 | 0 | 0.0 | 2.0 | 0.00 | 0.00 | 0.00 | 86 | 1012.2 |
| 20260906075018 | 70 | 0 | 0.0 | 2.0 | 0.00 | 0.00 | 0.00 | 85 | 1012.2 |
| 20260906074548 | 71 | 242 | 0.0 | 2.0 | 0.00 | 0.00 | 0.00 | 85 | 1012.3 |
| 20260906074018 | 71 | 242 | 0.0 | 2.0 | 0.00 | 0.00 | 0.00 | 85 | 1012.4 |
| 20260906073518 | 71 | 0 | 0.0 | 3.0 | 0.00 | 0.00 | 0.00 | 85 | 1012.4 |
| 20260906073038 | 71 | 0 | 0.0 | 3.0 | 0.00 | 0.00 | 0.00 | 85 | 1012.3 |
| 20260906072518 | 71 | 242 | 0.0 | 4.0 | 0.00 | 0.00 | 0.00 | 85 | 1012.3 |
| 20260906072020 | 71 | 0 | 1.0 | 4.0 | 0.00 | 0.00 | 0.00 | 85 | 1012.3 |
| 20260906071535 | 71 | 251 | 0.0 | 4.0 | 0.00 | 0.00 | 0.00 | 85 | 1012.4 |
| 20260906071021 | 71 | 0 | 0.0 | 6.0 | 0.00 | 0.00 | 0.00 | 86 | 1012.3 |
| 20260906070517 | 71 | 270 | 1.0 | 6.0 | 0.00 | 0.00 | 0.00 | 86 | 1012.2 |
| 20260906070036 | 71 | 233 | 1.0 | 4.0 | 0.00 | 0.00 | 0.00 | 86 | 1012.2 |
| 20260906065519 | 71 | 0 | 0.0 | 3.0 | 0.00 | 0.00 | 0.00 | 86 | 1012.2 |
| 20260906065021 | 71 | 0 | 0.0 | 4.0 | 0.00 | 0.00 | 0.00 | 86 | 1012.2 |
| 20260906064543 | 71 | 0 | 0.0 | 4.0 | 0.00 | 0.00 | 0.00 | 86 | 1012.2 |
| 20260906064018 | 71 | 0 | 1.0 | 4.0 | 0.00 | 0.00 | 0.00 | 86 | 1012.2 |
| 20260906063521 | 71 | 0 | 0.0 | 3.0 | 0.00 | 0.00 | 0.00 | 86 | 1012.2 |
| 20260906063039 | 71 | 260 | 0.0 | 3.0 | 0.00 | 0.00 | 0.00 | 86 | 1012.2 |
| 20260906062521 | 71 | 246 | 1.0 | 3.0 | 0.00 | 0.00 | 0.00 | 87 | 1012.3 |
| 20260906062020 | 71 | 255 | 1.0 | 3.0 | 0.00 | 0.00 | 0.00 | 86 | 1012.4 |
| 20260906061547 | 71 | 252 | 0.0 | 4.0 | 0.00 | 0.00 | 0.00 | 86 | 1012.4 |
| 20260906061019 | 71 | 263 | 0.0 | 4.0 | 0.00 | 0.00 | 0.00 | 87 | 1012.4 |
| 20260906060520 | 71 | 271 | 1.0 | 4.0 | 0.00 | 0.00 | 0.00 | 87 | 1012.4 |
| 20260906060036 | 71 | 263 | 1.0 | 4.0 | 0.00 | 0.00 | 0.00 | 87 | 1012.4 |
| 20260906055517 | 71 | 265 | 0.0 | 4.0 | 0.00 | 0.00 | 0.00 | 87 | 1012.4 |
| 20260906055020 | 71 | 222 | 1.0 | 6.0 | 0.00 | 0.00 | 0.00 | 87 | 1012.4 |
| 20260906054539 | 71 | 263 | 1.0 | 6.0 | 0.00 | 0.00 | 0.00 | 87 | 1012.4 |
| 20260906054018 | 71 | 286 | 2.0 | 6.0 | 0.00 | 0.00 | 0.00 | 87 | 1012.5 |
| 20260906053519 | 71 | 0 | 1.0 | 4.0 | 0.00 | 0.00 | 0.00 | 87 | 1012.6 |
| 20260906053034 | 71 | 284 | 0.0 | 4.0 | 0.00 | 0.00 | 0.00 | 87 | 1012.7 |
| 20260906052518 | 71 | 258 | 1.0 | 7.0 | 0.00 | 0.00 | 0.00 | 87 | 1012.8 |
| 20260906052020 | 71 | 245 | 1.0 | 7.0 | 0.00 | 0.00 | 0.00 | 87 | 1012.8 |
| 20260906051540 | 71 | 238 | 2.0 | 7.0 | 0.00 | 0.00 | 0.00 | 88 | 1012.8 |
| 20260906051020 | 71 | 244 | 1.0 | 7.0 | 0.00 | 0.00 | 0.00 | 87 | 1012.9 |
| 20260906050519 | 71 | 252 | 2.0 | 7.0 | 0.00 | 0.00 | 0.00 | 87 | 1013.0 |
| 20260906050040 | 71 | 240 | 1.0 | 6.0 | 0.00 | 0.00 | 0.00 | 88 | 1012.9 |
| 20260906045517 | 71 | 262 | 1.0 | 4.0 | 0.00 | 0.00 | 0.00 | 87 | 1013.0 |
| 20260906045018 | 71 | 0 | 1.0 | 4.0 | 0.00 | 0.00 | 0.00 | 87 | 1013.0 |
| 20260906044534 | 71 | 237 | 1.0 | 6.0 | 0.00 | 0.00 | 0.00 | 87 | 1013.0 |
| 20260906044018 | 71 | 263 | 1.0 | 6.0 | 0.00 | 0.00 | 0.00 | 87 | 1012.9 |
| 20260906043518 | 71 | 256 | 2.0 | 6.0 | 0.00 | 0.00 | 0.00 | 87 | 1012.7 |
| 20260906043038 | 71 | 258 | 2.0 | 6.0 | 0.00 | 0.00 | 0.00 | 87 | 1012.7 |
| 20260906042520 | 72 | 262 | 1.0 | 6.0 | 0.00 | 0.00 | 0.00 | 86 | 1012.8 |
| 20260906042020 | 72 | 281 | 1.0 | 6.0 | 0.00 | 0.00 | 0.00 | 86 | 1012.8 |
| 20260906041549 | 72 | 275 | 1.0 | 8.0 | 0.00 | 0.00 | 0.00 | 86 | 1012.8 |
| 20260906041021 | 72 | 258 | 2.0 | 8.0 | 0.00 | 0.00 | 0.00 | 85 | 1012.7 |
| 20260906040520 | 72 | 235 | 2.0 | 8.0 | 0.00 | 0.00 | 0.00 | 85 | 1012.7 |
| 20260906040038 | 71 | 232 | 2.0 | 6.0 | 0.00 | 0.00 | 0.00 | 85 | 1012.7 |
| 20260906035522 | 72 | 267 | 1.0 | 6.0 | 0.00 | 0.00 | 0.00 | 85 | 1012.5 |
| 20260906035019 | 71 | 263 | 2.0 | 6.0 | 0.00 | 0.00 | 0.00 | 85 | 1012.7 |
| 20260906034543 | 71 | 236 | 1.0 | 7.0 | 0.00 | 0.00 | 0.00 | 86 | 1012.7 |
| 20260906034023 | 72 | 273 | 2.0 | 7.0 | 0.00 | 0.00 | 0.00 | 86 | 1012.6 |
| 20260906033518 | 72 | 267 | 2.0 | 7.0 | 0.00 | 0.00 | 0.00 | 87 | 1012.5 |
| 20260906033044 | 72 | 0 | 1.0 | 7.0 | 0.00 | 0.00 | 0.00 | 87 | 1012.5 |
| 20260906032519 | 72 | 259 | 3.0 | 7.0 | 0.00 | 0.00 | 0.00 | 87 | 1012.4 |
| 20260906032020 | 72 | 249 | 3.0 | 7.0 | 0.00 | 0.00 | 0.00 | 87 | 1012.3 |
| 20260906031539 | 72 | 227 | 1.0 | 7.0 | 0.00 | 0.00 | 0.00 | 87 | 1012.2 |
| 20260906031022 | 72 | 264 | 2.0 | 8.0 | 0.00 | 0.00 | 0.00 | 87 | 1012.2 |
| 20260906030519 | 72 | 237 | 3.0 | 8.0 | 0.00 | 0.00 | 0.00 | 87 | 1012.1 |
| 20260906030043 | 72 | 211 | 3.0 | 8.0 | 0.00 | 0.00 | 0.00 | 87 | 1012.1 |
| 20260906025519 | 72 | 248 | 2.0 | 9.0 | 0.00 | 0.00 | 0.00 | 87 | 1012.1 |
| 20260906025020 | 72 | 264 | 3.0 | 9.0 | 0.00 | 0.00 | 0.00 | 87 | 1012.1 |
| 20260906024537 | 72 | 259 | 4.0 | 9.0 | 0.00 | 0.00 | 0.00 | 87 | 1012.1 |
| 20260906024018 | 72 | 264 | 3.0 | 7.0 | 0.00 | 0.00 | 0.00 | 87 | 1012.0 |
| 20260906023520 | 72 | 271 | 1.0 | 7.0 | 0.00 | 0.00 | 0.00 | 88 | 1012.1 |
| 20260906023038 | 72 | 274 | 2.0 | 10.0 | 0.00 | 0.00 | 0.00 | 88 | 1012.0 |
| 20260906022516 | 72 | 273 | 3.0 | 10.0 | 0.00 | 0.00 | 0.00 | 88 | 1012.0 |
| 20260906022021 | 73 | 278 | 3.0 | 11.0 | 0.00 | 0.00 | 0.00 | 88 | 1012.0 |
| 20260906021537 | 73 | 269 | 4.0 | 11.0 | 0.00 | 0.00 | 0.00 | 88 | 1012.1 |
| 20260906021020 | 73 | 223 | 4.0 | 10.0 | 0.00 | 0.00 | 0.00 | 87 | 1012.1 |
| 20260906020518 | 73 | 234 | 3.0 | 13.0 | 0.00 | 0.00 | 0.00 | 87 | 1012.2 |
| 20260906020039 | 73 | 262 | 3.0 | 13.0 | 0.00 | 0.00 | 0.00 | 87 | 1012.3 |
| 20260906015520 | 73 | 242 | 7.0 | 13.0 | 0.00 | 0.00 | 0.00 | 86 | 1012.2 |
| 20260906015019 | 74 | 282 | 5.0 | 10.0 | 0.00 | 0.00 | 0.00 | 86 | 1012.2 |
| 20260906014546 | 74 | 243 | 5.0 | 10.0 | 0.00 | 0.00 | 0.00 | 85 | 1012.2 |
| 20260906014020 | 74 | 240 | 4.0 | 14.0 | 0.00 | 0.00 | 0.00 | 85 | 1012.1 |
| 20260906013522 | 74 | 259 | 6.0 | 14.0 | 0.00 | 0.00 | 0.00 | 85 | 1012.1 |
| 20260906013037 | 74 | 238 | 6.0 | 14.0 | 0.00 | 0.00 | 0.00 | 84 | 1012.0 |
| 20260906012516 | 74 | 264 | 5.0 | 14.0 | 0.00 | 0.00 | 0.00 | 84 | 1012.0 |
| 20260906012016 | 75 | 224 | 6.0 | 13.0 | 0.00 | 0.00 | 0.00 | 84 | 1012.0 |
| 20260906011543 | 75 | 246 | 5.0 | 12.0 | 0.00 | 0.00 | 0.00 | 83 | 1012.0 |
| 20260906011017 | 75 | 273 | 6.0 | 12.0 | 0.00 | 0.00 | 0.00 | 82 | 1011.9 |
| 20260906010524 | 76 | 234 | 6.0 | 12.0 | 0.00 | 0.00 | 0.00 | 81 | 1011.8 |
| 20260906010058 | 76 | 260 | 6.0 | 12.0 | 0.00 | 0.00 | 0.00 | 80 | 1011.8 |
| 20260906005517 | 76 | 259 | 5.0 | 13.0 | 0.00 | 0.00 | 0.00 | 80 | 1011.9 |
| 20260906005021 | 76 | 231 | 6.0 | 13.0 | 0.00 | 0.00 | 0.00 | 81 | 1011.9 |
| 20260906004543 | 75 | 269 | 5.0 | 13.0 | 0.00 | 0.00 | 0.00 | 82 | 1011.8 |
| 20260906004024 | 75 | 266 | 5.0 | 13.0 | 0.00 | 0.00 | 0.00 | 82 | 1011.9 |
| 20260906003521 | 75 | 229 | 7.0 | 13.0 | 0.00 | 0.00 | 0.00 | 82 | 1011.8 |
| 20260906003042 | 75 | 273 | 3.0 | 10.0 | 0.00 | 0.00 | 0.00 | 82 | 1011.9 |
| 20260906002519 | 75 | 248 | 4.0 | 11.0 | 0.00 | 0.00 | 0.00 | 82 | 1012.0 |
| 20260906002018 | 75 | 256 | 5.0 | 11.0 | 0.00 | 0.00 | 0.00 | 81 | 1011.9 |
| 20260906001555 | 76 | 227 | 4.0 | 12.0 | 0.00 | 0.00 | 0.00 | 80 | 1011.9 |
| 20260906001025 | 76 | 231 | 5.0 | 12.0 | 0.00 | 0.00 | 0.00 | 80 | 1011.9 |
| 20260906000520 | 76 | 257 | 3.0 | 11.0 | 0.00 | 0.00 | 0.00 | 80 | 1011.8 |
| 20260906000036 | 76 | 295 | 3.0 | 13.0 | 0.00 | 0.00 | 0.00 | 80 | 1011.9 |
| 20260905235519 | 76 | 273 | 6.0 | 13.0 | 0.00 | 0.00 | 0.00 | 78 | 1011.8 |
| 20260905235024 | 77 | 264 | 6.0 | 14.0 | 0.00 | 0.00 | 0.00 | 78 | 1011.8 |
| 20260905234536 | 77 | 256 | 6.0 | 14.0 | 0.00 | 0.00 | 0.00 | 77 | 1011.9 |
| 20260905234018 | 77 | 271 | 7.0 | 12.0 | 0.00 | 0.00 | 0.00 | 77 | 1011.9 |
| 20260905233517 | 77 | 271 | 5.0 | 14.0 | 0.00 | 0.00 | 0.00 | 77 | 1011.9 |
| 20260905233035 | 78 | 278 | 6.0 | 14.0 | 0.00 | 0.00 | 0.00 | 75 | 1011.9 |
| 20260905232518 | 78 | 223 | 7.0 | 14.0 | 0.00 | 0.00 | 0.00 | 74 | 1011.9 |
| 20260905232019 | 78 | 221 | 6.0 | 12.0 | 0.00 | 0.00 | 0.00 | 74 | 1011.9 |
| 20260905231542 | 78 | 274 | 7.0 | 12.0 | 0.00 | 0.00 | 0.00 | 73 | 1011.8 |
| 20260905231020 | 78 | 263 | 5.0 | 12.0 | 0.00 | 0.00 | 0.00 | 73 | 1011.9 |
| 20260905230520 | 78 | 224 | 5.0 | 12.0 | 0.00 | 0.00 | 0.00 | 74 | 1011.9 |
| 20260905230039 | 78 | 259 | 6.0 | 13.0 | 0.00 | 0.00 | 0.00 | 73 | 1011.9 |
| 20260905225520 | 78 | 227 | 5.0 | 13.0 | 0.00 | 0.00 | 0.00 | 74 | 1011.9 |
| 20260905225018 | 79 | 249 | 6.0 | 13.0 | 0.00 | 0.00 | 0.00 | 73 | 1012.0 |
| 20260905224543 | 79 | 241 | 5.0 | 13.0 | 0.00 | 0.00 | 0.00 | 72 | 1012.1 |
| 20260905224017 | 78 | 285 | 4.0 | 11.0 | 0.00 | 0.00 | 0.00 | 74 | 1012.1 |
| 20260905223518 | 78 | 269 | 5.0 | 11.0 | 0.00 | 0.00 | 0.00 | 73 | 1012.1 |
| 20260905223042 | 78 | 214 | 5.0 | 11.0 | 0.00 | 0.00 | 0.00 | 73 | 1012.3 |
| 20260905222520 | 78 | 242 | 4.0 | 11.0 | 0.00 | 0.00 | 0.00 | 73 | 1012.3 |
| 20260905222020 | 78 | 236 | 5.0 | 10.0 | 0.00 | 0.00 | 0.00 | 73 | 1012.3 |
| 20260905221541 | 78 | 236 | 6.0 | 12.0 | 0.00 | 0.00 | 0.00 | 73 | 1012.3 |
| 20260905221022 | 78 | 222 | 5.0 | 12.0 | 0.00 | 0.00 | 0.00 | 73 | 1012.3 |
| 20260905220519 | 79 | 215 | 4.0 | 11.0 | 0.00 | 0.00 | 0.00 | 73 | 1012.4 |
| 20260905220036 | 79 | 287 | 5.0 | 12.0 | 0.00 | 0.00 | 0.00 | 72 | 1012.5 |
| 20260905215519 | 79 | 242 | 6.0 | 12.0 | 0.00 | 0.00 | 0.00 | 73 | 1012.5 |
| 20260905215019 | 79 | 265 | 5.0 | 12.0 | 0.00 | 0.00 | 0.00 | 73 | 1012.5 |
| 20260905214534 | 79 | 234 | 7.0 | 12.0 | 0.00 | 0.00 | 0.00 | 73 | 1012.7 |
| 20260905214019 | 79 | 263 | 4.0 | 12.0 | 0.00 | 0.00 | 0.00 | 73 | 1012.7 |
| 20260905213519 | 79 | 298 | 5.0 | 13.0 | 0.00 | 0.00 | 0.00 | 73 | 1012.8 |
| 20260905213045 | 79 | 227 | 5.0 | 13.0 | 0.00 | 0.00 | 0.00 | 74 | 1012.8 |
| 20260905212520 | 79 | 232 | 5.0 | 13.0 | 0.00 | 0.00 | 0.00 | 74 | 1012.8 |
| 20260905212019 | 79 | 250 | 5.0 | 11.0 | 0.00 | 0.00 | 0.00 | 74 | 1013.0 |
| 20260905211544 | 79 | 265 | 4.0 | 13.0 | 0.00 | 0.00 | 0.00 | 74 | 1012.8 |
| 20260905211020 | 79 | 269 | 5.0 | 13.0 | 0.00 | 0.00 | 0.00 | 75 | 1012.9 |
| 20260905210521 | 79 | 255 | 5.0 | 11.0 | 0.00 | 0.00 | 0.00 | 75 | 1012.9 |
| 20260905210039 | 79 | 230 | 5.0 | 13.0 | 0.00 | 0.00 | 0.00 | 74 | 1013.1 |
| 20260905205554 | 79 | 221 | 4.0 | 13.0 | 0.00 | 0.00 | 0.00 | 75 | 1013.0 |
| 20260905205017 | 79 | 250 | 4.0 | 12.0 | 0.00 | 0.00 | 0.00 | 75 | 1013.1 |
| 20260905204534 | 79 | 252 | 6.0 | 12.0 | 0.00 | 0.00 | 0.00 | 74 | 1013.1 |
| 20260905204019 | 79 | 242 | 5.0 | 12.0 | 0.00 | 0.00 | 0.00 | 75 | 1013.2 |
| 20260905203520 | 79 | 239 | 5.0 | 10.0 | 0.00 | 0.00 | 0.00 | 74 | 1013.3 |
| 20260905203051 | 79 | 232 | 4.0 | 11.0 | 0.00 | 0.00 | 0.00 | 74 | 1013.4 |
| 20260905202526 | 78 | 278 | 5.0 | 12.0 | 0.00 | 0.00 | 0.00 | 76 | 1013.3 |
| 20260905202019 | 78 | 211 | 4.0 | 12.0 | 0.00 | 0.00 | 0.00 | 75 | 1013.4 |
| 20260905201553 | 77 | 238 | 4.0 | 12.0 | 0.00 | 0.00 | 0.00 | 76 | 1013.5 |
| 20260905201019 | 77 | 267 | 6.0 | 12.0 | 0.00 | 0.00 | 0.00 | 76 | 1013.5 |
| 20260905200518 | 78 | 258 | 6.0 | 12.0 | 0.00 | 0.00 | 0.00 | 75 | 1013.7 |
| 20260905200037 | 78 | 262 | 6.0 | 12.0 | 0.00 | 0.00 | 0.00 | 76 | 1013.6 |
| 20260905195517 | 78 | 273 | 5.0 | 13.0 | 0.00 | 0.00 | 0.00 | 75 | 1013.7 |
| 20260905195016 | 78 | 256 | 6.0 | 13.0 | 0.00 | 0.00 | 0.00 | 75 | 1013.8 |
| 20260905194536 | 78 | 261 | 5.0 | 13.0 | 0.00 | 0.00 | 0.00 | 76 | 1013.9 |
| 20260905194018 | 78 | 260 | 4.0 | 11.0 | 0.00 | 0.00 | 0.00 | 76 | 1014.0 |
| 20260905193520 | 77 | 243 | 5.0 | 11.0 | 0.00 | 0.00 | 0.00 | 77 | 1014.0 |
| 20260905193038 | 78 | 267 | 5.0 | 11.0 | 0.00 | 0.00 | 0.00 | 76 | 1014.1 |
| 20260905192519 | 78 | 243 | 4.0 | 12.0 | 0.00 | 0.00 | 0.00 | 76 | 1014.0 |
| 20260905192018 | 78 | 255 | 5.0 | 12.0 | 0.00 | 0.00 | 0.00 | 76 | 1014.1 |
| 20260905191537 | 77 | 259 | 4.0 | 10.0 | 0.00 | 0.00 | 0.00 | 77 | 1014.2 |
| 20260905191018 | 77 | 265 | 5.0 | 9.0 | 0.00 | 0.00 | 0.00 | 76 | 1014.2 |
| 20260905190515 | 78 | 285 | 4.0 | 9.0 | 0.00 | 0.00 | 0.00 | 75 | 1014.2 |
| 20260905190038 | 77 | 265 | 4.0 | 9.0 | 0.00 | 0.00 | 0.00 | 76 | 1014.3 |
| 20260905185520 | 77 | 248 | 4.0 | 10.0 | 0.00 | 0.00 | 0.00 | 76 | 1014.3 |
| 20260905185018 | 77 | 248 | 4.0 | 10.0 | 0.00 | 0.00 | 0.00 | 76 | 1014.3 |
| 20260905184547 | 77 | 245 | 4.0 | 10.0 | 0.00 | 0.00 | 0.00 | 76 | 1014.3 |
| 20260905184020 | 77 | 209 | 4.0 | 10.0 | 0.00 | 0.00 | 0.00 | 76 | 1014.4 |
| 20260905183518 | 76 | 258 | 5.0 | 10.0 | 0.00 | 0.00 | 0.00 | 77 | 1014.4 |
| 20260905183043 | 76 | 251 | 5.0 | 11.0 | 0.00 | 0.00 | 0.00 | 77 | 1014.4 |
| 20260905182521 | 76 | 249 | 4.0 | 11.0 | 0.00 | 0.00 | 0.00 | 77 | 1014.4 |
| 20260905182022 | 76 | 209 | 5.0 | 11.0 | 0.00 | 0.00 | 0.00 | 77 | 1014.4 |
| 20260905181537 | 76 | 272 | 6.0 | 11.0 | 0.00 | 0.00 | 0.00 | 76 | 1014.4 |
| 20260905181018 | 76 | 282 | 4.0 | 10.0 | 0.00 | 0.00 | 0.00 | 76 | 1014.5 |
| 20260905180516 | 76 | 230 | 5.0 | 12.0 | 0.00 | 0.00 | 0.00 | 76 | 1014.4 |
| 20260905180037 | 76 | 252 | 4.0 | 12.0 | 0.00 | 0.00 | 0.00 | 75 | 1014.5 |
| 20260905175519 | 77 | 271 | 5.0 | 9.0 | 0.00 | 0.00 | 0.00 | 74 | 1014.5 |
| 20260905175019 | 77 | 278 | 2.0 | 9.0 | 0.00 | 0.00 | 0.00 | 75 | 1014.4 |
| 20260905174537 | 77 | 292 | 3.0 | 9.0 | 0.00 | 0.00 | 0.00 | 74 | 1014.4 |
| 20260905174020 | 77 | 233 | 3.0 | 8.0 | 0.00 | 0.00 | 0.00 | 74 | 1014.3 |
| 20260905173520 | 77 | 283 | 3.0 | 8.0 | 0.00 | 0.00 | 0.00 | 73 | 1014.2 |
| 20260905173038 | 77 | 257 | 3.0 | 8.0 | 0.00 | 0.00 | 0.00 | 73 | 1014.2 |
| 20260905172518 | 78 | 232 | 3.0 | 8.0 | 0.00 | 0.00 | 0.00 | 72 | 1014.2 |
| 20260905172020 | 78 | 264 | 2.0 | 6.0 | 0.00 | 0.00 | 0.00 | 71 | 1014.2 |
| 20260905171536 | 78 | 0 | 1.0 | 3.0 | 0.00 | 0.00 | 0.00 | 71 | 1014.3 |
| 20260905171018 | 78 | 0 | 0.0 | 4.0 | 0.00 | 0.00 | 0.00 | 67 | 1014.3 |
| 20260905170516 | 77 | 0 | 0.0 | 4.0 | 0.00 | 0.00 | 0.00 | 68 | 1014.3 |
| 20260905170035 | 77 | 0 | 1.0 | 4.0 | 0.00 | 0.00 | 0.00 | 69 | 1014.4 |
| 20260905165515 | 76 | 84 | 1.0 | 4.0 | 0.00 | 0.00 | 0.00 | 71 | 1014.3 |
| 20260905165018 | 75 | 0 | 0.0 | 3.0 | 0.00 | 0.00 | 0.00 | 72 | 1014.3 |
| 20260905164534 | 75 | 224 | 1.0 | 3.0 | 0.00 | 0.00 | 0.00 | 73 | 1014.3 |
| 20260905164019 | 75 | 258 | 1.0 | 3.0 | 0.00 | 0.00 | 0.00 | 73 | 1014.3 |
| 20260905163523 | 75 | 141 | 1.0 | 3.0 | 0.00 | 0.00 | 0.00 | 74 | 1014.3 |
| 20260905163036 | 75 | 157 | 1.0 | 3.0 | 0.00 | 0.00 | 0.00 | 74 | 1014.3 |
| 20260905162522 | 75 | 74 | 1.0 | 4.0 | 0.00 | 0.00 | 0.00 | 74 | 1014.1 |
| 20260905162018 | 74 | 77 | 1.0 | 4.0 | 0.00 | 0.00 | 0.00 | 77 | 1014.1 |
| 20260905161536 | 74 | 71 | 1.0 | 4.0 | 0.00 | 0.00 | 0.00 | 78 | 1014.1 |
| 20260905161021 | 74 | 0 | 0.0 | 2.0 | 0.00 | 0.00 | 0.00 | 80 | 1014.1 |
| 20260905160521 | 73 | 315 | 0.0 | 2.0 | 0.00 | 0.00 | 0.00 | 81 | 1014.2 |
| 20260905160035 | 73 | 313 | 0.0 | 2.0 | 0.00 | 0.00 | 0.00 | 82 | 1014.1 |
| 20260905155522 | 73 | 279 | 0.0 | 2.0 | 0.00 | 0.00 | 0.00 | 82 | 1014.1 |
| 20260905155020 | 73 | 285 | 0.0 | 2.0 | 0.00 | 0.00 | 0.00 | 82 | 1014.2 |
| 20260905154539 | 72 | 0 | 0.0 | 2.0 | 0.00 | 0.00 | 0.00 | 83 | 1014.1 |
| 20260905154020 | 72 | 0 | 0.0 | 3.0 | 0.00 | 0.00 | 0.00 | 84 | 1014.0 |
| 20260905153521 | 71 | 53 | 0.0 | 3.0 | 0.00 | 0.00 | 0.00 | 84 | 1014.0 |
| 20260905153037 | 71 | 46 | 0.0 | 3.0 | 0.00 | 0.00 | 0.00 | 85 | 1013.9 |
| 20260905152520 | 70 | 0 | 0.0 | 3.0 | 0.00 | 0.00 | 0.00 | 86 | 1013.8 |
| 20260905152020 | 70 | 0 | 0.0 | 2.0 | 0.00 | 0.00 | 0.00 | 88 | 1013.9 |
| 20260905151538 | 69 | 0 | 0.0 | 2.0 | 0.00 | 0.00 | 0.00 | 89 | 1013.9 |
| 20260905151019 | 68 | 267 | 0.0 | 2.0 | 0.00 | 0.00 | 0.00 | 91 | 1013.8 |
| 20260905150518 | 68 | 0 | 0.0 | 2.0 | 0.00 | 0.00 | 0.00 | 92 | 1013.9 |
| 20260905150035 | 67 | 0 | 0.0 | 3.0 | 0.00 | 0.00 | 0.00 | 92 | 1013.8 |
| 20260905145516 | 66 | 267 | 0.0 | 3.0 | 0.00 | 0.00 | 0.00 | 93 | 1013.7 |
| 20260905145018 | 66 | 0 | 0.0 | 2.0 | 0.00 | 0.00 | 0.00 | 94 | 1013.7 |
| 20260905144539 | 65 | 0 | 0.0 | 1.0 | 0.00 | 0.00 | 0.00 | 95 | 1013.7 |
| 20260905144020 | 64 | 0 | 0.0 | 0.0 | 0.00 | 0.00 | 0.00 | 96 | 1013.8 |
| 20260905143518 | 64 | 0 | 0.0 | 0.0 | 0.00 | 0.00 | 0.00 | 96 | 1013.8 |
| 20260905143038 | 63 | 0 | 0.0 | 0.0 | 0.00 | 0.00 | 0.00 | 96 | 1013.8 |
| 20260905142520 | 62 | 0 | 0.0 | 0.0 | 0.00 | 0.00 | 0.00 | 96 | 1013.6 |
| 20260905142018 | 61 | 0 | 0.0 | 1.0 | 0.00 | 0.00 | 0.00 | 95 | 1013.5 |
| 20260905141536 | 61 | 0 | 0.0 | 1.0 | 0.00 | 0.00 | 0.00 | 95 | 1013.6 |
| 20260905141016 | 61 | 0 | 0.0 | 1.0 | 0.00 | 0.00 | 0.00 | 95 | 1013.6 |
| 20260905140518 | 61 | 0 | 0.0 | 0.0 | 0.00 | 0.00 | 0.00 | 95 | 1013.5 |
| 20260905140033 | 60 | 0 | 0.0 | 0.0 | 0.00 | 0.00 | 0.00 | 94 | 1013.4 |
| 20260905135518 | 60 | 0 | 0.0 | 0.0 | 0.00 | 0.00 | 0.00 | 94 | 1013.2 |
| 20260905135016 | 60 | 0 | 0.0 | 0.0 | 0.00 | 0.00 | 0.00 | 94 | 1013.2 |
| 20260905134547 | 60 | 0 | 0.0 | 0.0 | 0.00 | 0.00 | 0.00 | 94 | 1013.1 |
| 20260905134020 | 60 | 0 | 0.0 | 0.0 | 0.00 | 0.00 | 0.00 | 93 | 1013.0 |
| 20260905133520 | 60 | 0 | 0.0 | 0.0 | 0.00 | 0.00 | 0.00 | 93 | 1012.9 |
| 20260905133036 | 60 | 0 | 0.0 | 0.0 | 0.00 | 0.00 | 0.00 | 93 | 1013.1 |
| 20260905132517 | 60 | 0 | 0.0 | 0.0 | 0.00 | 0.00 | 0.00 | 93 | 1013.0 |
| 20260905132020 | 60 | 0 | 0.0 | 0.0 | 0.00 | 0.00 | 0.00 | 93 | 1012.9 |
| 20260905131535 | 60 | 0 | 0.0 | 0.0 | 0.00 | 0.00 | 0.00 | 93 | 1013.0 |
| 20260905131021 | 60 | 0 | 0.0 | 0.0 | 0.00 | 0.00 | 0.00 | 93 | 1013.0 |
| 20260905130516 | 61 | 0 | 0.0 | 1.0 | 0.00 | 0.00 | 0.00 | 93 | 1012.9 |
| 20260905130041 | 61 | 0 | 0.0 | 1.0 | 0.00 | 0.00 | 0.00 | 93 | 1012.8 |
| 20260905125519 | 61 | 0 | 0.0 | 0.0 | 0.00 | 0.00 | 0.00 | 93 | 1012.7 |
| 20260905125020 | 61 | 0 | 0.0 | 0.0 | 0.00 | 0.00 | 0.00 | 93 | 1012.8 |
| 20260905124539 | 61 | 0 | 0.0 | 0.0 | 0.00 | 0.00 | 0.00 | 93 | 1012.8 |
| 20260905124019 | 61 | 0 | 0.0 | 0.0 | 0.00 | 0.00 | 0.00 | 93 | 1012.9 |
| 20260905123520 | 61 | 0 | 0.0 | 0.0 | 0.00 | 0.00 | 0.00 | 93 | 1012.8 |
| 20260905123036 | 61 | 0 | 0.0 | 0.0 | 0.00 | 0.00 | 0.00 | 93 | 1012.7 |
| 20260905122518 | 61 | 0 | 0.0 | 0.0 | 0.00 | 0.00 | 0.00 | 93 | 1012.7 |
| 20260905122015 | 61 | 0 | 0.0 | 0.0 | 0.00 | 0.00 | 0.00 | 93 | 1012.7 |
| 20260905121543 | 61 | 0 | 0.0 | 0.0 | 0.00 | 0.00 | 0.00 | 93 | 1012.7 |
| 20260905121021 | 61 | 0 | 0.0 | 0.0 | 0.00 | 0.00 | 0.00 | 93 | 1012.8 |
| 20260905120516 | 61 | 0 | 0.0 | 0.0 | 0.00 | 0.00 | 0.00 | 92 | 1012.9 |
| 20260905120036 | 61 | 0 | 0.0 | 0.0 | 0.00 | 0.00 | 0.00 | 93 | 1012.8 |
| 20260905115521 | 61 | 0 | 0.0 | 0.0 | 0.00 | 0.00 | 0.00 | 92 | 1012.8 |
| 20260905115020 | 61 | 0 | 0.0 | 0.0 | 0.00 | 0.00 | 0.00 | 93 | 1012.8 |
| 20260905114543 | 61 | 0 | 0.0 | 0.0 | 0.00 | 0.00 | 0.00 | 92 | 1012.8 |
| 20260905114019 | 61 | 0 | 0.0 | 0.0 | 0.00 | 0.00 | 0.00 | 92 | 1012.7 |
| 20260905113521 | 62 | 0 | 0.0 | 0.0 | 0.00 | 0.00 | 0.00 | 92 | 1012.7 |
| 20260905113034 | 62 | 0 | 0.0 | 0.0 | 0.00 | 0.00 | 0.00 | 92 | 1012.7 |
| 20260905112518 | 62 | 0 | 0.0 | 0.0 | 0.00 | 0.00 | 0.00 | 92 | 1012.8 |
| 20260905112015 | 62 | 0 | 0.0 | 0.0 | 0.00 | 0.00 | 0.00 | 92 | 1012.8 |
| 20260905111536 | 62 | 0 | 0.0 | 0.0 | 0.00 | 0.00 | 0.00 | 92 | 1012.8 |
| 20260905111016 | 62 | 0 | 0.0 | 0.0 | 0.00 | 0.00 | 0.00 | 92 | 1013.0 |
| 20260905110518 | 62 | 0 | 0.0 | 0.0 | 0.00 | 0.00 | 0.00 | 92 | 1013.0 |
| 20260905110040 | 62 | 0 | 0.0 | 0.0 | 0.00 | 0.00 | 0.00 | 92 | 1013.1 |
| 20260905105520 | 62 | 0 | 0.0 | 0.0 | 0.00 | 0.00 | 0.00 | 92 | 1013.0 |
| 20260905105018 | 62 | 0 | 0.0 | 0.0 | 0.00 | 0.00 | 0.00 | 92 | 1012.9 |
| 20260905104536 | 62 | 0 | 0.0 | 0.0 | 0.00 | 0.00 | 0.00 | 92 | 1012.8 |
| 20260905104020 | 62 | 0 | 0.0 | 0.0 | 0.00 | 0.00 | 0.00 | 91 | 1012.9 |
| 20260905103519 | 62 | 0 | 0.0 | 0.0 | 0.00 | 0.00 | 0.00 | 91 | 1012.9 |